This is the latest recevied weather packets stored in our database for station/object EA1IOK-1. If no packets are shown the sender has not sent any weather packets the latest 10 day(s).
| Time | Temp. | Humidity | Pressure | Rain* | Wind** | Luminosity | Snow |
|---|---|---|---|---|---|---|---|
| 1777991180 | 15° C | 100% | 1013.7 hPa | - | - | - | - |
| 1777989382 | 16.67° C | 100% | 1013.8 hPa | - | - | - | - |
| 1777988476 | 18.89° C | 100% | 1013.9 hPa | - | - | - | - |
| 1777987582 | 15.56° C | 100% | 1014.1 hPa | - | - | - | - |
| 1777986853 | 14.44° C | 100% | 1014.2 hPa | - | - | - | - |
| 1777986675 | 14.44° C | 100% | 1014.2 hPa | - | - | - | - |
| 1777985774 | 13.89° C | 100% | 1014.1 hPa | - | - | - | - |
| 1777984879 | 14.44° C | 100% | 1014 hPa | - | - | - | - |
| 1777983977 | 11.67° C | 100% | 1014.1 hPa | - | - | - | - |
| 1777983077 | 13.89° C | 100% | 1014.1 hPa | - | - | - | - |
| 1777982177 | 16.11° C | 100% | 1014.2 hPa | - | - | - | - |
| 1777981275 | 13.89° C | 100% | 1014.4 hPa | - | - | - | - |
| 1777980370 | 13.33° C | 100% | 1014.3 hPa | - | - | - | - |
| 1777979470 | 13.33° C | 100% | 1014.5 hPa | - | - | - | - |
| 1777978573 | 13.33° C | 100% | 1014.5 hPa | - | - | - | - |
| 1777977672 | 12.78° C | 100% | 1014.6 hPa | - | - | - | - |
| 1777976772 | 12.78° C | 100% | 1014.7 hPa | - | - | - | - |
| 1777975868 | 15.56° C | 100% | 1014.6 hPa | - | - | - | - |
| 1777974972 | 12.22° C | 100% | 1014.7 hPa | - | - | - | - |
| 1777974068 | 11.11° C | 100% | 1014.5 hPa | - | - | - | - |
| 1777973163 | 11.67° C | 100% | 1014.5 hPa | - | - | - | - |
| 1777972267 | 13.89° C | 100% | 1014.5 hPa | - | - | - | - |
| 1777971362 | 12.22° C | 100% | 1014.6 hPa | - | - | - | - |
| 1777970462 | 11.67° C | 100% | 1014.6 hPa | - | - | - | - |
| 1777969565 | 12.22° C | 100% | 1014.7 hPa | - | - | - | - |
* Rain since midnight (hover to see other rain measurements)
** Current wind speed in m/s (hover to see current wind gust speed)